sat.trackr.live / text

‹ back to catalog

GONETS-M 6

NORAD 39250 · 2013-048B

PAYLOAD ACTIVE UNKNOWN

§ Identity

Operator
Country
CIS
Launch date
2013-09-11
Launch site
PLMSC
Launch vehicle
Mass (kg)
RCS (m²)
1.67

External: N2YO · Heavens-Above · Gunter

§ Orbital elements

Epoch: 2026-09-20T03:21:09.442368Z

Period
115.85 min
Inclination
82.4813°
Eccentricity
0.0019872
Mean motion
12.43032777 rev/d
Perigee alt
1,478.1 km
Apogee alt
1,509.4 km
Semi-major
7,871.9 km
B*
-4.8228e-4
RAAN
285.0926°
Arg perigee
42.2332°
Mean anomaly
318.0274°
Rev number
59,074

§ Raw data

GONETS-M 61 39250U 13048B   26263.13969262 -.00000057  00000+0 -48228-3 0  99922 39250  82.4813 285.0926 0019872  42.2332 318.0274 12.43032777590748

JSON: /api/v1/satellites/39250 · /tle

For live sub-satellite position, see the globe view (requires WebGL).

§ Visibility from observer

Set your observer location to see the next 7 days of passes ≥ 10°. The values pass through the URL so the page stays shareable.

No JS? Fill the form by hand. The geolocation button needs JavaScript.